Location: Krasnoyarskiy Pitomnik
(51.1333°N, 71.6167°E)
Time: 18:31:51
(UTC+00:00)

Vanguard 2 - Pass Details

Date: 01 May 2024
Orbit: 553 x 2914 km, 32.9° (Epoch: 22 May)

Event Time Altitude Azimuth Distance (km) Brightness Sun altitude
Rises 17:31:50 0° 214° (SW) 4,258 11.0 -20.1°
Enters shadow 17:31:54 - 214° (SSW) 4,240 11.0 -20.1°
Exits shadow 17:46:42 20° 126° (SE) 3,937 10.6 -21.0°
Drops below altitude 10° 17:52:19 10° 107° (ESE) 5,106 11.4 -21.3°
Sets 17:58:02 0° 96° (E) 6,436 12.0 -21.6°
